VIV4201 MMTM-MMMX

Flight info

Callsign VIV4201
Flight time N/A
Altitude 37000
Route ANILO1A TAM UT102 PAZ/N0459F360 UT154 ENAGA ENAGA3A
Aircraft B736/M-SDE2E3FGHIRWXY/LB1

Departure

Time N/A
Airport General Francisco Javier Mina International Airport (MMTM)

Arrival

Time 2026-05-01 07:53
Airport Mexico City Benito Juárez International Airport (MMMX)
Time Latitude Longitude Altitude Speed Heading
2026-05-01 07:23 20.38523 -97.72688 35856 ft 448 kts 232°
2026-05-01 07:24 20.32481 -97.80285 35871 ft 448 kts 232°
2026-05-01 07:24 20.29132 -97.84495 35876 ft 448 kts 232°
2026-05-01 07:25 20.25096 -97.89565 35881 ft 448 kts 232°
2026-05-01 07:25 20.21063 -97.94625 35870 ft 448 kts 231°
2026-05-01 07:25 20.19033 -97.97172 35493 ft 451 kts 231°
2026-05-01 07:26 20.17007 -97.99712 35147 ft 449 kts 231°
2026-05-01 07:26 20.14987 -98.02244 34803 ft 449 kts 231°
2026-05-01 07:26 20.12962 -98.04780 34467 ft 450 kts 231°
2026-05-01 07:26 20.10931 -98.07324 34140 ft 451 kts 231°
2026-05-01 07:27 20.08898 -98.09869 33797 ft 452 kts 231°
2026-05-01 07:27 20.06857 -98.12423 33421 ft 453 kts 231°
2026-05-01 07:27 20.04816 -98.14975 33041 ft 453 kts 231°
2026-05-01 07:27 20.02857 -98.17595 32650 ft 452 kts 239°
2026-05-01 07:28 20.01532 -98.20614 32277 ft 450 kts 255°
2026-05-01 07:28 20.00804 -98.23848 31892 ft 451 kts 259°
2026-05-01 07:28 20.00182 -98.27086 31470 ft 453 kts 259°
2026-05-01 07:28 19.99575 -98.30372 31095 ft 454 kts 260°
2026-05-01 07:29 19.98957 -98.33667 30714 ft 455 kts 259°
2026-05-01 07:29 19.98320 -98.36966 30352 ft 456 kts 259°
2026-05-01 07:29 19.97667 -98.40268 29986 ft 457 kts 259°
2026-05-01 07:29 19.97002 -98.43576 29569 ft 458 kts 259°
2026-05-01 07:30 19.96331 -98.46887 29136 ft 459 kts 258°
2026-05-01 07:30 19.95656 -98.50208 28732 ft 460 kts 258°
2026-05-01 07:30 19.94977 -98.53546 28316 ft 461 kts 258°
2026-05-01 07:30 19.94298 -98.56884 27918 ft 462 kts 258°
2026-05-01 07:31 19.93627 -98.60182 27516 ft 464 kts 258°
2026-05-01 07:31 19.91682 -98.69730 27052 ft 419 kts 258°
2026-05-01 07:32 19.90539 -98.75754 26928 ft 399 kts 262°
2026-05-01 07:32 19.90221 -98.78583 26948 ft 373 kts 264°
2026-05-01 07:33 19.89727 -98.83748 27025 ft 345 kts 264°
2026-05-01 07:33 19.89458 -98.86283 27094 ft 345 kts 264°
2026-05-01 07:33 19.89001 -98.91328 27107 ft 341 kts 270°
2026-05-01 07:34 19.89105 -98.93841 27126 ft 340 kts 274°
2026-05-01 07:34 19.89528 -98.98844 27136 ft 340 kts 275°
2026-05-01 07:34 19.89736 -99.01346 27138 ft 341 kts 275°
2026-05-01 07:35 19.89930 -99.03860 27133 ft 342 kts 274°
2026-05-01 07:35 19.90114 -99.06381 27130 ft 345 kts 274°
2026-05-01 07:35 19.90293 -99.08955 27120 ft 353 kts 274°
2026-05-01 07:35 19.90470 -99.11561 27088 ft 352 kts 274°
2026-05-01 07:36 19.90643 -99.14147 27051 ft 348 kts 274°
2026-05-01 07:36 19.90811 -99.16664 27023 ft 345 kts 274°
2026-05-01 07:36 19.90979 -99.19197 26974 ft 338 kts 274°
2026-05-01 07:36 19.91141 -99.21636 26857 ft 322 kts 274°
2026-05-01 07:37 19.91442 -99.26199 25897 ft 310 kts 274°
2026-05-01 07:37 19.91585 -99.28539 24917 ft 322 kts 271°
2026-05-01 07:37 19.91294 -99.30931 23963 ft 332 kts 256°
2026-05-01 07:38 19.90685 -99.33320 23130 ft 335 kts 254°
2026-05-01 07:38 19.90064 -99.35658 22423 ft 330 kts 255°
2026-05-01 07:38 19.88888 -99.40295 21165 ft 320 kts 256°
2026-05-01 07:39 19.88325 -99.42576 20513 ft 317 kts 256°
2026-05-01 07:39 19.87703 -99.44816 19868 ft 315 kts 247°
2026-05-01 07:39 19.84999 -99.48401 18649 ft 310 kts 226°
2026-05-01 07:40 19.83489 -99.50034 18067 ft 308 kts 226°
2026-05-01 07:40 19.81992 -99.51671 17795 ft 312 kts 227°
2026-05-01 07:40 19.80411 -99.53247 17647 ft 312 kts 215°
2026-05-01 07:40 19.78413 -99.54099 17579 ft 312 kts 190°
2026-05-01 07:41 19.76257 -99.54006 17570 ft 312 kts 166°
2026-05-01 07:41 19.74371 -99.53023 17552 ft 295 kts 142°
2026-05-01 07:41 19.72069 -99.49899 17533 ft 251 kts 121°
2026-05-01 07:42 19.71188 -99.48379 17528 ft 232 kts 121°
2026-05-01 07:42 19.70358 -99.46939 17544 ft 226 kts 121°
2026-05-01 07:42 19.69531 -99.45513 17549 ft 228 kts 121°
2026-05-01 07:42 19.68669 -99.44033 17081 ft 245 kts 121°
2026-05-01 07:43 19.67725 -99.42421 16645 ft 268 kts 121°
2026-05-01 07:43 19.66727 -99.40725 16169 ft 273 kts 122°
2026-05-01 07:43 19.64713 -99.37311 15224 ft 270 kts 122°
2026-05-01 07:44 19.62823 -99.34116 14386 ft 264 kts 122°
2026-05-01 07:44 19.60889 -99.30852 13773 ft 256 kts 122°
2026-05-01 07:45 19.59913 -99.29257 13636 ft 261 kts 128°
2026-05-01 07:45 19.58583 -99.27967 13416 ft 255 kts 143°
2026-05-01 07:45 19.57173 -99.26901 13172 ft 241 kts 145°
2026-05-01 07:45 19.55833 -99.25899 12897 ft 232 kts 145°
2026-05-01 07:46 19.54532 -99.24911 12599 ft 228 kts 144°
2026-05-01 07:46 19.53256 -99.23948 12402 ft 223 kts 149°
2026-05-01 07:46 19.50344 -99.23434 12248 ft 207 kts 180°
2026-05-01 07:47 19.48893 -99.23419 11995 ft 210 kts 180°
2026-05-01 07:47 19.47396 -99.23406 11829 ft 224 kts 180°
2026-05-01 07:47 19.45782 -99.23394 11704 ft 231 kts 180°
2026-05-01 07:47 19.44250 -99.23378 11560 ft 210 kts 180°
2026-05-01 07:48 19.41290 -99.23327 11433 ft 199 kts 180°
2026-05-01 07:48 19.39951 -99.23213 11076 ft 189 kts 169°
2026-05-01 07:48 19.38817 -99.22609 10740 ft 178 kts 151°
2026-05-01 07:49 19.37914 -99.21772 10395 ft 171 kts 116°
2026-05-01 07:49 19.36928 -99.19513 9719 ft 174 kts 95°
2026-05-01 07:49 19.37337 -99.18344 9459 ft 172 kts 51°
2026-05-01 07:50 19.37970 -99.17263 9402 ft 186 kts 67°
2026-05-01 07:50 19.39192 -99.14848 9179 ft 179 kts 59°
2026-05-01 07:50 19.39814 -99.13750 8975 ft 168 kts 60°
2026-05-01 07:51 19.40385 -99.12729 8722 ft 155 kts 60°
2026-05-01 07:51 19.40911 -99.11761 8323 ft 149 kts 61°
2026-05-01 07:51 19.41429 -99.10803 8005 ft 151 kts 60°
2026-05-01 07:52 19.42527 -99.08858 7471 ft 154 kts 58°
2026-05-01 07:52 19.43085 -99.07891 7315 ft 150 kts 59°
2026-05-01 07:52 19.43565 -99.07036 7301 ft 118 kts 59°
2026-05-01 07:53 19.44136 -99.06021 7299 ft 24 kts 59°
2026-05-01 07:53 19.44253 -99.05932 7302 ft 19 kts
2026-05-01 07:53 19.44315 -99.06005 7302 ft 14 kts 294°
2026-05-01 07:53 19.44353 -99.06096 7302 ft 13 kts 294°
2026-05-01 07:54 19.44419 -99.06275 7302 ft 13 kts 285°
2026-05-01 07:55 19.44314 -99.06518 7302 ft 12 kts 238°
2026-05-01 07:55 19.44201 -99.06719 7302 ft 22 kts 239°
2026-05-01 07:56 19.43987 -99.07101 7302 ft 19 kts 239°
2026-05-01 07:56 19.43856 -99.07327 7302 ft 17 kts 240°
2026-05-01 07:57 19.43784 -99.07458 7302 ft 24 kts 239°
2026-05-01 07:57 19.43622 -99.07746 7302 ft 22 kts 239°
2026-05-01 07:58 19.43527 -99.07952 7302 ft 4 kts 292°
2026-05-01 07:58 19.43576 -99.07988 7302 ft 3 kts 329°
2026-05-01 07:59 19.43587 -99.07995 7302 ft 0 kts 329°
2026-05-01 07:59 19.43588 -99.07996 7302 ft 0 kts 329°